Wind_Speed
26 26 26 26 26 26 26 26 26 27 27 28 28 29 29 30 30 31 31 31 30 30 29 29 28 28 28 28 28 29 29 29 29 29 28 28 28 28 27 28 28 29 29 29 28 28 28 29 29 29 29 29 29 29 31 31 32 33 31 29 25 22 18 18 24 27 29 32 36 39 39 39 40 38 35 32 31 32 31 31 31 30 33 32 25 24 24 25
26 26 26 26 26 26 26 27 27 27 27 27 28 28 29 29 30 30 30 30 30 29 29 28 28 28 28 28 28 29 28 29 29 29 28 27 27 27 27 27 28 29 29 28 27 27 28 28 28 27 27 28 28 29 31 32 32 32 30 28 23 19 18 22 29 30 31 35 39 41 40 41 43 40 36 32 29 31 31 32 32 30 34 31 23 23 24 25
28 28 28 28 27 27 27 27 27 28 28 28 28 28 29 29 29 29 29 29 29 28 28 28 28 28 28 28 28 28 28 29 28 28 28 27 27 27 27 27 28 28 28 28 27 27 27 27 25 25 25 26 28 29 30 31 31 31 31 27 20 18 22 29 33 33 34 37 40 42 42 43 44 41 37 32 31 32 32 33 32 31 34 29 21 23 24 25
29 29 29 29 29 29 28 28 28 28 28 28 28 28 29 29 29 29 29 29 28 28 28 27 27 27 28 28 28 28 28 28 28 28 28 27 27 27 27 27 27 28 27 27 27 27 26 25 24 24 24 25 27 29 29 29 30 31 31 25 19 22 27 33 35 35 37 39 41 43 44 44 45 43 37 32 32 32 32 33 32 33 32 25 20 22 23 23
29 30 30 30 30 30 29 29 29 28 28 28 28 28 28 29 29 29 29 29 28 28 28 27 27 27 27 28 28 28 28 29 28 28 28 27 27 27 27 27 27 27 27 27 27 26 25 24 23 23 23 24 27 28 27 28 31 32 30 24 21 24 29 34 37 38 39 40 40 42 44 45 45 43 38 34 32 30 31 32 32 33 29 21 20 22 22 22
29 29 29 29 30 30 30 29 29 29 29 28 28 28 28 29 29 29 29 29 29 28 28 28 27 27 27 28 28 28 28 29 28 28 28 28 28 28 28 27 27 27 26 26 25 25 23 22 22 21 22 24 26 26 26 29 32 32 28 24 23 24 29 34 38 40 40 40 40 41 43 44 44 43 40 35 30 28 29 30 32 31 26 20 19 21 23 22
28 29 29 29 29 29 29 29 29 29 29 29 28 28 28 29 29 29 29 29 29 29 28 28 28 28 28 28 28 28 29 29 27 28 28 28 28 28 27 27 27 26 25 24 24 23 22 21 20 21 22 23 25 25 26 30 33 31 27 24 23 25 29 35 39 42 42 41 40 41 43 43 42 40 38 34 29 27 27 28 29 28 24 20 18 19 22 22
28 28 29 29 29 29 29 29 29 29 29 29 29 29 29 29 29 29 29 29 29 29 29 29 28 28 28 28 28 28 29 28 27 28 28 28 28 27 27 26 26 26 24 24 23 22 21 19 20 21 21 22 25 25 27 31 33 30 25 24 25 26 30 36 41 43 42 41 40 42 43 42 40 38 37 34 31 28 28 28 27 26 24 21 19 17 20 22
28 28 28 29 29 29 29 29 29 29 30 30 30 30 30 30 30 30 30 30 30 30 30 30 29 29 29 28 28 29 28 28 28 28 28 27 27 27 26 26 26 25 24 23 22 21 20 20 22 22 22 23 25 25 28 31 32 28 25 26 28 29 31 37 43 44 43 42 41 42 42 41 41 39 38 35 32 30 28 27 26 26 24 23 21 19 20 21
30 30 29 29 29 29 29 30 30 30 30 31 31 31 31 31 31 31 31 31 31 31 31 31 30 30 30 29 28 28 28 27 28 28 27 27 27 27 26 26 26 25 24 22 21 21 22 23 23 23 22 23 24 25 28 30 29 28 27 28 29 29 30 36 41 42 42 42 42 42 41 41 42 40 37 34 32 30 28 27 27 26 23 22 23 23 21 22
32 32 32 31 30 30 30 30 30 30 30 31 31 32 32 32 32 32 32 32 32 32 32 31 31 31 30 29 29 28 27 27 28 27 27 27 26 27 26 26 26 25 24 21 21 22 23 23 23 22 21 23 24 25 28 28 28 29 29 28 28 28 29 33 38 39 41 43 42 42 41 42 44 41 38 36 34 31 28 26 26 26 24 23 24 26 23 24
33 33 33 33 32 32 31 31 30 30 30 31 31 31 32 32 33 33 33 33 33 33 32 32 32 31 30 30 29 28 28 28 28 28 28 27 27 27 27 27 26 25 24 22 22 23 24 24 22 22 22 23 23 24 26 27 28 29 29 28 27 28 28 31 35 36 40 43 42 42 43 43 44 42 39 39 34 28 24 23 24 25 26 25 26 27 26 27
34 34 34 34 34 33 33 32 31 31 31 31 31 31 31 32 33 33 33 33 33 33 33 33 33 32 31 31 30 28 28 28 28 28 28 28 28 28 28 28 27 26 24 23 24 25 25 24 23 23 23 23 22 23 25 25 26 27 28 27 26 27 26 27 32 34 37 42 43 45 46 44 43 40 39 38 31 24 21 21 22 23 24 25 26 27 26 27
34 34 34 34 34 33 33 32 32 31 31 31 31 32 32 32 33 33 33 33 34 34 34 34 34 33 32 32 31 29 28 28 29 29 29 29 29 28 28 28 28 27 26 25 26 26 26 25 24 24 23 22 22 24 23 24 24 25 26 26 24 26 25 24 29 32 34 38 42 46 47 45 43 41 39 34 26 21 20 22 23 22 22 24 26 25 24 23
33 33 33 33 33 33 33 32 32 32 31 31 32 32 32 33 33 33 33 33 34 34 34 34 34 34 33 33 32 30 29 29 29 30 29 28 27 27 28 28 29 28 27 27 27 27 27 26 24 23 23 22 22 23 23 24 24 24 25 24 23 24 23 23 27 30 31 34 40 47 48 44 43 43 40 33 26 21 21 24 23 24 23 24 24 23 21 19
32 31 31 32 32 32 32 32 31 31 31 32 32 32 33 33 34 34 34 34 34 34 34 35 35 35 34 33 32 31 30 30 29 29 27 25 25 27 27 28 29 28 28 28 28 28 27 26 25 24 24 24 23 23 23 25 24 23 23 22 22 23 22 22 25 28 30 32 37 44 48 46 44 44 40 33 29 26 26 26 24 25 25 24 24 22 19 17
31 31 30 30 30 30 31 31 30 30 30 31 31 32 33 34 34 35 35 35 35 35 35 35 35 35 35 34 33 32 31 30 29 27 26 25 26 27 27 28 29 29 29 30 29 28 26 25 25 26 25 25 23 22 23 24 22 21 22 21 22 23 22 22 24 26 29 32 35 41 47 49 47 45 40 35 32 30 28 27 25 26 26 24 22 20 16 16
30 30 29 29 29 29 30 30 30 30 30 30 30 31 32 33 34 35 35 35 35 35 34 35 35 35 35 33 32 32 31 30 28 27 25 25 26 27 28 30 31 30 30 30 28 26 25 25 26 27 26 25 24 23 22 20 19 21 22 22 23 24 24 23 24 27 30 34 36 39 44 48 47 45 41 38 36 32 29 29 27 27 27 24 22 19 16 16
29 28 28 27 27 28 30 30 30 29 29 29 30 30 31 32 33 33 34 34 33 33 34 34 34 34 34 32 32 32 31 30 28 27 25 25 25 26 28 30 31 32 31 29 27 26 25 24 24 25 24 24 24 23 22 19 19 21 23 23 23 24 24 23 24 28 32 35 37 39 42 45 46 43 40 38 35 31 31 31 29 29 27 24 23 20 18 18
28 27 26 26 27 28 29 29 28 28 28 29 29 30 30 30 30 31 31 31 32 32 33 33 33 33 32 32 33 31 30 29 28 27 25 24 24 25 27 29 31 32 30 28 27 26 25 23 21 20 21 23 24 23 22 21 20 21 23 23 23 23 22 21 23 28 32 34 35 37 39 41 41 37 35 35 33 32 32 32 29 28 26 24 24 22 19 19
26 26 26 26 28 28 28 27 27 27 28 29 29 28 28 28 29 29 29 30 30 30 32 32 33 32 29 31 33 31 29 28 27 26 24 23 23 23 25 27 29 29 27 27 27 26 25 20 15 16 19 23 24 24 23 22 21 21 22 22 22 21 20 21 23 27 30 31 32 33 35 36 34 30 31 34 33 32 32 31 28 25 24 25 24 22 20 18
26 25 26 27 28 28 27 26 26 26 27 28 28 28 28 28 28 29 29 29 29 30 31 31 32 30 26 30 32 30 29 26 24 24 23 22 22 21 23 25 26 25 26 28 27 25 22 15 12 16 21 23 25 24 23 23 22 22 21 21 20 18 19 20 22 25 28 29 29 31 32 31 29 30 32 33 32 31 31 29 27 24 23 22 20 20 19 16
26 25 26 27 28 27 26 25 25 26 27 27 27 27 27 28 28 29 29 30 28 29 32 31 32 31 26 27 31 31 28 24 22 23 23 22 21 22 23 23 23 25 27 28 26 23 19 14 16 21 22 23 25 24 23 23 23 21 21 20 18 18 20 19 21 25 28 28 27 30 30 26 27 30 30 30 29 29 29 29 28 25 22 18 17 18 17 14
26 26 26 26 27 27 26 26 25 25 26 26 25 26 27 28 28 29 29 30 26 25 30 30 32 29 22 25 32 32 28 23 22 22 22 21 20 22 22 21 23 26 26 26 25 22 18 18 21 22 22 23 24 24 23 23 22 22 20 18 17 19 21 20 23 26 27 27 27 29 27 24 26 26 26 26 26 27 27 28 27 24 19 15 15 18 16 14
26 26 26 26 27 27 26 25 24 24 25 25 24 26 28 28 29 28 28 29 24 20 25 30 29 24 21 26 31 30 26 21 19 19 20 20 21 22 22 22 23 24 24 25 24 21 20 21 22 21 21 22 23 23 22 22 23 23 21 19 19 21 22 22 25 27 26 25 25 25 23 27 26 23 24 24 24 24 24 24 24 21 17 15 16 18 16 13
26 25 25 25 26 26 26 24 23 23 23 24 24 26 27 27 28 27 26 26 22 18 21 26 26 22 22 26 27 28 26 19 18 21 21 21 22 23 23 22 21 22 23 25 24 21 21 22 21 21 21 21 22 21 21 21 22 23 21 20 21 21 22 22 26 28 27 23 23 23 26 31 27 21 23 23 22 24 23 22 21 19 19 18 17 17 15 11
25 25 25 24 25 26 25 23 23 22 22 23 24 26 27 27 26 24 25 25 21 18 19 21 23 22 22 26 26 27 25 20 21 23 21 20 23 24 22 20 20 22 25 26 22 19 22 22 21 21 21 21 20 20 21 21 22 22 21 21 21 21 22 23 27 28 26 23 23 23 26 30 27 24 25 24 24 24 23 23 22 22 22 21 19 18 15 13
25 25 24 23 24 25 23 22 22 22 22 23 24 25 26 25 24 23 23 21 17 16 16 16 20 21 21 24 25 24 24 23 23 23 22 22 24 23 21 18 19 23 26 25 20 19 22 22 22 23 22 21 20 20 21 23 23 21 20 22 22 21 21 24 28 26 23 22 23 25 27 27 26 26 27 27 26 25 22 22 23 25 26 24 22 20 17 16
23 23 22 21 22 23 22 21 21 22 22 23 23 24 25 24 22 22 22 19 14 14 15 15 18 21 22 22 21 22 23 23 22 23 23 24 24 22 19 18 21 26 27 24 21 22 22 22 24 25 22 21 20 21 22 23 22 17 19 23 23 22 23 26 30 26 23 23 22 24 28 27 26 27 27 27 27 25 22 21 21 23 23 23 23 21 19 20
22 22 21 20 21 21 21 20 21 21 21 21 22 23 24 23 22 23 20 16 15 16 16 16 19 22 23 21 20 20 20 21 21 20 20 22 24 23 21 21 24 28 27 23 22 23 22 23 25 23 21 22 22 23 22 21 18 15 19 23 23 24 25 28 32 28 25 25 22 22 27 28 27 27 28 27 26 25 23 21 21 21 20 20 20 21 22 23
22 21 20 20 19 19 19 20 20 20 20 21 22 22 22 22 22 22 18 14 17 19 18 18 19 22 23 24 23 22 21 23 23 19 17 21 23 22 21 22 24 26 25 22 22 24 23 23 22 21 22 24 24 23 22 20 18 17 20 23 24 26 27 30 33 30 28 26 22 23 27 28 27 26 28 28 27 26 25 23 23 21 20 21 22 23 25 24
21 20 19 19 18 18 18 20 21 20 20 20 21 22 22 22 20 18 16 17 20 20 19 20 21 21 23 25 27 26 24 24 24 20 18 19 20 20 19 20 22 24 23 20 21 24 24 22 21 22 23 24 24 24 22 21 19 19 21 23 25 26 28 31 33 31 30 27 23 24 28 29 28 26 25 27 28 27 26 25 24 23 23 24 25 27 26 24
20 19 18 18 18 17 17 19 21 20 19 20 20 21 21 21 17 15 16 19 22 22 21 23 23 22 23 24 25 27 27 25 24 23 21 21 21 20 20 22 24 24 22 21 22 23 23 22 22 22 22 23 24 22 21 20 19 17 17 20 23 25 28 32 34 32 30 28 25 24 27 29 30 29 25 24 26 27 27 27 27 27 27 26 26 26 25 24
18 17 17 18 18 17 17 18 20 20 19 19 20 21 20 18 15 15 18 21 23 25 24 23 24 25 24 23 23 26 27 27 27 26 25 24 24 22 22 23 23 23 22 24 24 23 23 23 23 22 22 23 20 18 18 19 18 15 14 17 20 24 27 29 33 34 31 29 27 26 27 30 31 31 28 25 24 24 26 28 29 29 26 24 23 24 23 23
17 16 16 17 17 16 16 17 19 19 18 18 19 20 18 16 16 19 21 22 25 27 26 25 25 26 27 26 25 27 28 27 27 27 26 26 25 23 22 21 21 23 24 26 25 23 23 23 23 23 22 20 16 12 12 15 16 16 17 18 19 22 25 26 29 32 33 31 29 27 28 30 31 30 29 27 23 19 19 22 24 25 23 22 22 23 22 21
15 15 15 16 15 15 15 16 17 18 18 18 18 18 17 17 19 20 22 24 27 28 29 28 28 28 29 29 29 29 29 28 27 27 27 27 26 25 24 23 24 25 26 26 25 24 24 23 22 23 21 18 16 13 12 13 15 18 20 19 19 21 24 24 25 28 33 33 31 30 30 30 31 30 29 29 26 22 19 20 21 23 23 22 23 24 24 22
14 14 14 14 15 15 15 16 17 18 18 18 18 18 18 19 20 22 24 26 28 28 30 31 31 31 31 31 31 30 29 28 28 27 27 26 26 26 27 27 27 26 26 27 26 26 26 23 22 22 20 19 19 19 17 16 16 19 21 21 21 23 24 25 25 26 30 34 34 34 32 32 33 31 31 31 30 28 25 23 24 26 27 26 24 25 25 22
13 13 13 14 15 15 16 17 18 19 19 20 20 20 20 20 22 23 25 27 28 28 30 33 33 33 33 33 32 31 29 28 29 29 29 28 27 27 27 28 28 27 27 27 26 27 26 24 23 22 21 21 22 22 21 19 20 21 22 22 24 25 24 26 27 27 29 33 36 37 36 35 35 35 35 34 32 32 30 27 27 28 28 26 24 24 24 22
13 12 13 13 15 16 16 17 18 19 20 20 21 21 21 22 24 24 24 26 28 28 31 34 35 35 34 34 34 33 31 29 30 30 30 30 30 29 28 28 28 29 29 27 25 26 27 26 24 23 23 23 22 23 23 22 22 23 24 26 26 25 26 27 28 29 30 32 36 38 37 36 35 35 35 34 31 29 28 28 26 25 25 24 23 22 22 22
12 12 12 13 13 14 14 15 15 16 18 19 20 20 20 22 24 24 24 25 28 29 31 35 36 36 36 36 35 34 33 32 31 30 30 30 30 30 29 29 29 30 30 27 25 25 27 27 27 25 26 25 24 25 25 24 23 24 26 28 26 26 27 28 29 30 32 32 34 36 35 33 31 29 28 28 27 26 25 25 25 24 24 24 25 24 22 22
12 11 11 10 11 11 12 13 14 15 16 17 18 19 20 22 24 26 26 26 28 30 33 36 39 39 39 38 37 35 35 35 34 31 28 27 27 28 29 28 29 30 30 28 27 27 27 28 27 27 28 29 28 27 27 26 25 25 26 28 26 25 27 29 28 28 30 32 32 32 31 29 27 26 24 23 24 24 24 24 23 23 23 24 26 24 21 20
10 9 9 9 9 10 11 13 14 15 17 18 20 21 22 22 24 26 27 27 29 31 33 37 41 42 41 39 38 37 36 36 37 34 29 26 25 27 29 29 29 30 30 29 29 28 29 29 28 29 31 31 30 30 29 28 27 26 27 28 27 26 27 28 27 26 26 29 30 30 28 26 25 24 24 23 23 23 23 22 22 21 22 23 23 22 20 19
8 7 7 8 9 10 12 13 13 14 16 17 19 21 23 25 26 27 28 28 30 33 35 38 42 44 44 41 38 37 35 35 37 37 34 31 28 26 28 30 32 32 31 31 31 30 30 30 29 31 32 32 31 32 31 29 28 28 28 29 29 28 28 29 28 26 25 26 27 27 27 26 24 23 23 23 23 22 22 21 21 22 23 22 20 19 19 19
7 7 8 9 10 11 11 12 12 12 13 14 15 17 19 21 25 28 30 30 32 34 37 38 41 44 46 45 41 38 36 36 38 38 37 35 33 29 27 28 32 34 34 32 32 32 32 31 31 33 34 34 33 34 33 32 30 29 30 30 31 30 30 30 29 28 27 27 27 26 26 26 25 24 23 22 21 21 20 21 21 23 25 24 23 21 17 16
6 7 8 9 10 10 11 11 12 13 13 13 14 14 15 17 19 23 29 32 33 35 37 38 40 42 45 47 46 42 39 38 38 37 36 35 34 32 28 27 29 32 34 33 33 33 33 33 33 35 36 36 35 34 34 33 32 31 31 31 31 32 32 32 31 29 29 28 28 28 27 26 25 25 24 22 21 20 20 20 19 20 23 25 26 25 20 16
6 7 8 9 10 10 11 12 12 13 14 14 15 14 15 16 17 19 25 31 33 35 37 38 39 41 43 45 46 46 43 40 38 37 35 33 32 32 29 27 28 30 31 32 33 34 33 32 33 36 36 36 36 36 35 34 34 33 32 31 32 32 33 33 33 32 31 30 29 29 28 27 26 25 25 24 24 22 22 21 19 17 19 20 21 21 19 17
6 7 8 9 10 10 11 12 12 14 14 14 15 16 17 18 20 20 22 27 31 34 36 37 38 39 41 42 44 45 45 42 40 38 36 33 31 32 31 28 26 27 28 28 29 30 30 29 30 34 37 37 37 37 37 36 35 35 34 33 33 33 34 34 35 35 35 33 32 30 28 27 26 26 25 25 24 23 22 22 22 21 20 20 19 19 18 16
6 6 7 9 9 9 10 11 12 13 13 14 15 17 17 18 20 22 22 24 29 31 33 35 36 36 39 40 41 43 43 43 41 39 38 35 32 31 32 30 27 24 24 24 25 27 28 28 28 29 35 39 38 37 38 37 36 36 36 34 33 34 35 35 36 37 37 36 34 32 31 30 29 28 27 26 25 24 23 21 20 20 20 19 18 16 15 13
6 6 7 8 9 9 10 11 12 12 12 12 14 16 15 15 16 19 21 22 26 29 29 31 32 32 34 36 39 41 42 42 41 39 38 36 33 30 29 29 27 24 22 21 22 24 26 27 28 27 31 37 40 39 38 38 38 37 37 36 35 34 34 34 36 37 38 38 36 34 33 32 31 30 28 28 27 26 24 22 20 19 19 17 14 12 13 13
6 7 7 8 8 9 10 11 11 10 9 10 13 13 12 12 12 13 15 19 23 26 26 26 27 28 29 32 35 39 41 41 41 41 40 38 34 31 28 26 25 24 22 20 20 22 23 24 25 26 28 32 39 43 42 40 39 39 39 39 38 37 36 35 36 38 39 39 38 36 34 32 31 30 29 28 28 27 25 24 23 23 22 22 23 22 21 19
6 6 7 7 8 10 11 11 11 9 8 9 11 11 10 10 10 8 9 14 19 23 24 24 24 24 25 27 30 35 39 40 39 40 41 40 37 32 29 26 25 24 23 22 21 20 21 22 23 25 25 26 31 38 40 39 38 39 41 41 41 40 39 38 38 38 39 40 39 38 35 33 33 33 31 31 29 28 26 25 24 25 25 26 27 27 25 24
5 5 6 6 7 9 10 10 10 8 8 8 9 10 8 7 8 7 5 9 15 19 21 21 22 23 23 25 27 30 35 39 40 38 39 41 40 36 31 26 23 23 23 24 24 22 20 20 21 24 25 25 27 31 33 34 35 37 40 43 43 42 41 40 40 40 40 40 39 38 36 33 33 33 34 34 33 30 27 25 24 24 26 27 26 25 24 23
Wind_Direction
247 248 248 250 251 252 253 254 255 255 256 256 256 256 256 257 257 258 259 260 262 263 264 265 265 266 265 265 265 265 265 265 266 266 268 269 270 272 274 275 275 275 275 275 274 274 273 272 271 269 266 263 260 255 253 251 250 251 247 241 233 225 217 209 214 213 208 210 211 213 216 218 220 219 218 222 227 231 234 240 244 247 252 253 252 257 262 265
247 248 249 249 250 251 252 253 254 255 255 256 256 256 256 256 256 257 258 259 261 262 263 264 264 265 265 265 264 264 264 264 264 265 266 267 269 271 273 274 275 275 275 275 274 274 273 272 271 268 264 261 257 253 252 251 250 250 246 239 228 217 204 196 205 206 204 207 208 211 216 218 219 220 219 220 225 233 235 239 243 246 253 255 255 262 265 266
248 249 250 250 251 251 252 253 253 254 254 255 255 255 256 256 256 257 258 259 260 261 262 263 264 264 265 264 264 263 263 263 263 263 264 265 267 269 270 272 274 275 275 275 274 274 273 272 269 265 261 258 255 253 251 249 250 248 245 238 219 210 201 192 199 202 201 204 206 209 213 216 219 220 220 221 225 232 236 239 243 247 253 257 259 264 266 265
250 250 250 250 250 251 251 252 252 253 253 253 254 254 255 255 256 256 257 258 259 261 262 262 263 264 264 264 263 263 262 262 262 262 263 264 265 267 269 270 273 274 275 275 274 274 272 270 267 262 258 254 253 252 248 247 248 246 244 237 212 208 202 191 196 201 202 204 206 208 211 215 218 219 221 224 228 232 236 240 244 248 252 255 255 259 263 259
251 251 251 251 250 250 251 251 252 252 253 253 253 254 254 255 255 256 257 258 259 260 261 262 263 263 263 263 263 263 262 262 261 262 262 262 263 266 268 270 272 273 273 273 273 273 271 269 264 261 256 252 251 250 246 244 245 244 242 233 214 211 203 195 198 200 203 205 207 208 211 214 218 221 223 227 233 236 239 241 244 250 254 252 250 252 255 255
253 252 252 252 251 250 250 251 251 252 252 253 253 254 254 255 255 255 256 257 258 259 260 261 262 263 263 263 263 263 262 262 262 262 262 262 263 265 268 270 271 271 271 271 272 271 269 266 262 259 254 249 247 246 243 241 242 241 239 231 217 210 203 201 202 201 204 206 208 211 213 218 221 226 229 230 234 238 243 245 248 254 256 253 253 251 251 252
254 253 253 253 252 252 251 251 251 251 252 253 253 254 254 255 255 256 256 257 258 259 260 260 261 262 262 262 263 263 262 262 262 261 261 261 262 264 266 268 268 269 270 270 270 268 266 263 261 256 250 246 244 242 240 240 241 238 236 231 222 212 203 204 205 203 206 207 210 214 217 221 223 227 230 231 233 238 244 247 252 257 256 252 253 251 247 248
256 255 254 253 253 253 252 252 252 252 252 253 254 254 254 255 256 256 257 257 257 258 259 260 260 261 261 261 262 262 262 262 261 260 260 261 262 263 264 265 266 268 268 267 266 265 263 259 256 251 246 244 242 239 239 241 241 238 235 230 224 216 204 204 207 205 207 209 211 214 217 220 222 224 228 230 230 234 243 247 253 257 256 252 249 244 240 241
258 257 256 254 254 253 253 253 253 253 254 254 254 254 255 255 256 257 257 257 257 257 258 258 258 259 260 260 260 261 261 261 261 260 261 261 261 262 263 264 265 265 263 262 262 260 256 251 249 247 242 240 240 238 238 241 243 239 235 230 225 219 207 205 209 208 209 212 213 215 217 218 222 225 229 232 231 234 240 246 251 254 255 253 245 240 236 232
258 257 257 256 255 254 253 253 253 253 253 254 254 255 255 255 255 256 256 257 257 256 256 256 257 257 258 258 258 260 262 262 262 262 261 261 260 260 261 261 262 262 260 258 255 252 249 248 247 246 244 242 241 240 240 242 244 241 236 231 228 224 214 209 211 211 211 214 215 217 218 220 223 226 229 231 231 232 236 242 249 252 254 250 242 238 233 227
256 255 255 255 254 254 253 253 252 252 253 253 254 254 255 256 256 255 255 255 255 255 255 255 255 255 256 257 257 259 262 262 262 261 260 259 258 257 257 257 258 259 258 253 248 246 246 246 246 245 245 244 243 242 242 243 244 243 238 234 232 230 222 213 212 213 215 218 218 220 220 222 225 226 228 231 231 233 241 251 258 259 256 248 240 237 233 237
255 254 254 253 253 253 253 253 253 253 254 254 254 255 255 256 256 256 256 255 255 255 254 254 254 254 255 256 257 260 261 260 260 259 257 256 254 252 253 254 255 255 254 249 246 245 244 243 242 241 242 242 243 244 245 245 244 245 242 237 235 234 229 218 215 217 220 221 222 223 223 225 229 230 232 235 235 241 253 261 263 261 255 246 238 238 241 248
255 255 254 253 253 253 253 253 254 254 255 256 256 257 257 257 257 256 256 256 256 255 255 254 254 254 254 254 256 257 258 257 256 255 253 252 250 250 251 250 249 249 249 246 243 243 244 242 239 238 240 242 244 245 246 247 246 248 248 242 237 236 233 225 223 224 224 224 226 228 228 228 231 234 236 239 242 251 261 263 262 261 255 246 239 241 246 252
256 256 255 255 254 254 253 253 254 254 255 256 257 258 258 258 258 257 257 257 256 256 255 254 253 253 252 253 254 254 254 255 254 253 252 252 250 249 249 248 244 242 243 243 242 242 243 242 239 238 239 241 243 245 246 249 248 249 250 247 243 239 235 230 229 229 228 227 228 231 233 232 233 235 236 241 247 253 261 266 265 262 255 244 240 241 246 251
257 257 257 257 256 256 255 255 255 255 256 257 258 258 259 259 258 258 257 257 257 256 255 255 254 253 252 252 253 253 253 254 254 254 255 255 253 250 247 245 242 239 239 240 240 242 242 242 241 239 239 240 242 244 245 246 247 247 249 248 246 242 237 232 231 231 232 231 230 233 237 237 236 237 237 238 243 249 264 270 264 260 255 244 240 242 245 251
258 257 256 257 257 257 257 257 256 256 257 257 258 259 260 260 259 259 258 258 257 256 255 255 254 252 251 251 252 252 252 253 254 256 256 253 250 249 245 242 240 238 238 238 237 240 242 243 242 239 238 239 241 245 244 244 245 246 248 248 246 243 236 230 229 231 233 234 233 235 239 241 240 242 242 241 244 255 270 271 262 256 252 244 241 241 245 252
257 256 256 256 257 258 259 258 257 257 257 257 257 258 259 259 258 258 259 258 257 256 256 255 254 253 251 251 251 252 252 254 256 257 256 252 249 247 242 237 236 234 234 235 236 239 243 244 242 239 238 238 241 245 245 245 248 250 250 248 245 243 235 225 223 227 230 231 232 234 238 241 243 245 248 248 251 260 268 265 258 253 249 244 241 239 242 247
256 256 255 256 257 258 259 258 257 257 257 257 257 257 257 256 257 259 260 260 260 260 258 257 255 254 252 251 250 250 251 253 255 256 256 254 252 248 241 236 235 232 232 233 235 238 243 243 242 239 237 238 240 244 247 247 247 247 245 243 240 240 235 223 216 220 226 227 228 231 234 238 241 244 247 250 254 258 259 256 251 249 246 242 239 235 235 236
256 256 257 258 258 258 258 257 258 258 258 258 258 258 258 258 259 261 263 264 264 263 261 259 257 255 253 251 249 249 250 252 253 254 255 254 252 248 241 237 236 233 231 232 235 238 242 242 242 242 238 238 241 244 246 244 242 241 240 238 235 235 235 227 218 219 225 227 228 230 233 236 239 241 244 247 250 249 246 246 246 246 245 242 238 234 231 229
257 258 260 260 259 258 257 258 259 260 261 261 260 261 262 263 264 264 264 264 264 262 260 258 256 254 253 250 249 249 250 251 252 253 255 255 253 248 241 239 237 234 231 231 233 237 240 242 245 246 239 238 242 243 242 240 239 239 239 238 236 235 234 230 225 224 228 231 231 233 234 237 239 240 242 241 239 236 237 240 242 244 244 243 240 238 236 232
258 259 260 259 258 258 258 259 261 262 263 264 265 265 266 267 267 266 264 264 263 261 259 257 255 253 251 250 249 247 248 250 252 253 255 255 253 247 242 241 238 234 230 229 232 235 239 244 249 247 238 237 241 242 240 239 237 238 239 239 239 238 236 233 228 227 230 234 235 236 237 238 238 235 232 231 230 230 232 237 239 240 240 241 241 244 247 245
258 258 258 258 258 258 259 260 262 263 264 266 267 269 269 269 268 267 265 263 262 259 257 255 255 252 248 249 249 246 247 249 250 253 254 253 250 244 239 239 237 231 227 228 232 235 239 245 248 242 237 235 240 241 240 240 239 240 241 241 243 241 238 235 229 225 230 235 235 236 238 236 232 226 223 225 228 229 230 232 234 234 236 240 245 250 255 253
258 257 257 257 258 258 259 261 262 263 265 267 269 271 270 269 269 268 265 262 262 261 258 254 254 251 244 246 248 245 245 246 247 249 251 253 250 244 236 233 232 227 225 227 231 235 238 242 239 237 235 233 237 239 239 239 240 243 244 246 246 240 239 233 219 216 225 233 232 234 238 231 219 215 215 220 224 226 227 228 229 229 231 239 249 254 255 250
258 257 257 258 258 259 259 260 261 264 266 268 271 271 269 268 267 267 265 264 264 263 261 257 255 251 240 240 246 244 242 243 246 247 250 253 252 249 242 231 226 224 224 226 231 233 234 237 237 237 237 235 236 238 239 240 241 243 245 247 244 238 239 225 206 209 221 228 230 233 232 212 199 199 204 213 220 223 224 225 228 229 227 236 250 258 256 247
259 258 259 259 259 259 259 260 261 264 267 269 270 269 267 267 266 266 267 266 267 266 263 260 257 249 236 238 244 245 243 241 244 244 245 248 248 249 245 234 225 221 222 226 229 231 232 235 237 238 238 236 236 237 239 240 241 243 243 244 241 238 238 221 204 210 218 222 229 228 208 188 187 194 200 209 217 223 225 226 229 228 225 233 248 256 254 247
260 259 259 259 259 259 259 260 262 264 266 267 267 267 267 267 267 268 269 268 268 266 261 259 257 249 238 238 240 243 243 237 235 237 235 238 242 245 244 238 228 220 221 225 226 227 230 234 236 237 237 236 236 236 238 238 239 242 239 238 238 237 238 222 206 212 216 218 225 217 194 187 192 201 206 209 215 222 227 230 231 227 225 233 244 252 253 252
262 261 260 260 260 260 260 262 263 264 265 265 265 266 266 267 268 270 269 269 271 267 260 254 252 245 235 234 234 238 241 233 231 234 231 234 241 245 244 238 228 223 223 225 225 225 229 233 234 235 236 234 233 233 235 235 236 237 233 232 233 234 236 221 207 210 213 213 216 210 201 197 198 206 212 212 214 219 225 229 230 226 227 234 242 249 252 256
263 262 261 261 261 261 261 263 264 264 263 263 264 265 266 267 268 268 267 270 273 268 259 248 243 238 229 229 230 232 236 234 232 234 231 230 236 241 242 236 227 225 226 224 223 224 227 229 229 230 230 230 228 228 230 231 232 230 226 228 227 227 229 216 206 205 205 206 206 207 210 210 207 211 215 216 216 219 223 227 229 229 232 238 242 248 254 259
262 262 261 261 261 262 263 265 264 264 263 263 263 264 265 265 264 264 264 265 265 260 254 239 231 228 221 220 225 227 233 235 234 234 232 229 232 234 234 228 224 225 225 221 220 225 226 225 226 228 228 228 226 225 226 228 227 221 219 224 223 221 219 211 207 204 202 202 198 203 214 215 211 210 213 218 221 224 226 226 227 231 235 240 243 247 253 260
262 262 261 261 261 263 266 265 263 263 264 263 262 262 262 262 260 259 259 259 255 249 244 233 228 227 218 210 213 218 222 226 228 227 224 224 226 227 224 221 221 223 223 218 219 226 225 223 227 229 227 225 225 224 225 228 225 213 214 220 219 217 212 209 210 206 203 201 192 200 212 211 208 206 208 215 220 225 228 228 230 234 238 241 243 247 253 262
262 261 261 261 261 263 266 266 264 263 263 262 261 261 261 259 257 257 255 249 244 241 237 232 229 229 220 206 202 205 209 218 222 218 213 219 224 227 226 225 225 226 223 217 218 225 225 225 228 228 225 224 224 224 225 226 222 213 213 216 216 216 212 209 210 208 206 200 191 199 207 207 207 206 208 212 219 226 229 230 232 235 238 240 243 251 258 263
261 261 261 262 261 262 263 264 264 263 261 259 260 260 260 258 257 256 249 238 235 236 234 230 225 224 222 213 206 204 207 215 223 221 215 218 223 224 227 229 229 228 224 217 219 226 227 226 227 226 225 226 226 224 221 219 215 212 213 214 215 215 212 210 210 210 207 200 194 203 207 206 208 211 212 215 221 228 231 232 233 237 243 247 250 255 257 255
261 262 262 261 261 260 259 260 261 261 260 259 258 258 258 257 256 250 240 232 230 231 230 226 224 222 222 218 211 209 210 214 221 223 218 219 221 218 219 224 225 225 221 213 215 223 225 225 226 225 225 227 227 225 220 215 212 214 218 217 216 217 214 210 210 212 211 205 203 209 212 209 209 213 217 220 225 231 236 239 242 247 251 253 254 252 249 249
262 262 261 261 261 259 258 258 260 260 259 258 257 257 257 256 250 239 234 230 228 228 224 218 220 223 223 219 213 212 214 215 219 222 219 219 221 217 218 222 225 225 222 217 214 216 218 219 222 224 225 226 225 223 222 218 216 221 225 224 221 220 219 214 213 215 216 213 210 214 220 219 215 216 220 225 230 235 240 244 246 249 249 249 249 246 243 247
261 260 260 261 261 261 260 260 261 261 259 257 257 257 256 250 240 233 230 229 226 224 219 214 215 219 222 221 215 212 213 216 222 224 220 217 218 217 217 220 224 223 222 221 218 215 215 215 217 221 222 221 214 207 213 216 217 221 222 223 223 222 223 220 216 217 219 219 218 220 226 228 226 227 228 229 231 234 241 245 245 245 246 245 243 240 240 243
259 259 260 261 262 261 260 259 260 260 259 257 256 256 252 244 237 232 230 229 227 223 219 215 213 216 220 220 220 218 215 216 221 225 224 218 214 213 213 214 218 219 218 219 218 217 214 209 211 216 215 211 203 196 202 208 213 220 221 221 222 224 225 222 217 219 221 222 223 225 229 234 235 236 236 235 235 236 239 242 242 241 242 242 240 243 246 244
259 260 261 262 263 263 261 260 261 261 261 259 257 255 250 245 239 234 230 230 231 227 219 214 213 216 218 219 221 224 222 217 217 222 226 222 214 212 213 213 216 216 216 216 216 216 213 204 203 209 209 205 204 205 208 208 208 215 219 222 223 224 226 223 218 218 222 224 226 228 231 237 240 242 242 241 240 240 241 244 242 238 236 235 237 244 248 246
260 260 262 263 264 265 265 264 263 263 263 262 260 256 252 249 244 239 236 235 234 229 219 213 214 216 218 220 221 224 224 219 217 219 223 222 217 214 214 215 217 217 215 214 215 218 215 203 196 201 206 206 205 206 208 210 211 210 212 218 222 223 225 225 222 221 222 224 228 231 234 238 242 246 248 248 246 243 244 247 245 239 235 233 234 241 246 247
261 262 263 264 266 267 268 268 268 266 265 263 260 256 252 250 249 246 243 239 236 231 220 214 214 215 217 220 223 223 221 219 219 218 221 225 222 217 217 217 217 218 216 214 215 218 217 206 196 200 207 208 207 206 205 211 216 212 210 214 217 219 221 222 223 225 226 227 230 233 236 240 243 247 249 248 246 243 243 246 246 242 241 238 236 239 242 244
261 263 265 266 267 268 268 268 268 267 266 263 260 256 251 247 247 246 242 238 237 232 222 216 216 215 216 219 223 224 221 220 220 217 220 228 229 225 224 221 217 217 216 214 216 219 219 211 201 202 209 209 209 209 206 210 217 216 216 216 215 216 219 220 222 224 226 228 230 233 235 238 240 243 245 243 239 237 237 239 241 242 244 244 242 241 239 237
262 264 266 266 267 268 269 269 269 268 266 264 261 258 254 248 246 244 239 235 234 231 224 218 217 217 216 217 220 223 222 221 221 219 218 224 229 229 228 225 221 218 215 215 216 218 220 216 206 204 210 211 211 212 211 212 217 219 221 221 218 217 220 222 224 225 225 226 228 229 233 236 237 238 242 240 237 236 234 233 237 240 241 241 241 240 236 235
259 261 263 265 268 272 275 277 278 276 274 270 266 262 258 252 248 246 241 234 231 229 225 221 218 218 218 218 217 219 220 221 222 224 221 219 221 224 226 226 224 222 219 218 218 218 220 219 210 207 213 214 213 215 215 215 218 221 224 224 221 219 222 226 228 229 228 228 228 229 232 234 233 233 238 240 240 241 240 239 240 242 242 242 239 236 235 236
254 257 262 268 274 276 278 280 282 283 283 280 275 269 263 256 250 246 243 236 230 228 226 223 221 220 219 218 217 218 219 221 225 227 227 223 219 220 224 225 224 224 222 221 222 220 221 220 213 211 216 218 216 217 217 218 220 222 225 228 225 220 221 226 230 231 232 232 232 233 235 237 236 236 239 242 244 246 247 247 246 246 248 248 242 232 229 233
253 262 270 275 277 278 279 283 288 291 292 291 287 282 274 265 254 247 243 237 231 228 226 224 223 223 221 220 219 219 221 224 227 229 230 229 226 223 226 227 226 225 224 224 225 223 223 223 217 214 218 220 220 220 219 219 220 221 224 228 229 225 222 224 228 230 232 233 234 234 235 239 241 241 242 244 245 247 248 248 249 249 250 253 248 237 227 230
261 272 282 286 286 286 289 295 298 296 296 298 297 292 286 279 266 253 245 239 233 229 227 225 224 225 224 222 221 222 224 226 228 230 231 230 229 228 228 229 227 225 225 228 230 229 229 227 220 218 222 224 225 225 224 222 221 223 225 227 230 231 228 226 227 229 231 232 234 235 236 239 243 244 246 247 247 248 249 248 250 250 249 251 249 239 231 233
270 280 290 297 299 298 299 304 303 298 299 303 302 296 289 281 273 261 250 243 237 231 228 226 225 225 226 225 223 224 226 227 228 231 231 230 230 230 231 232 229 227 227 229 231 233 235 233 225 222 224 227 229 229 230 228 226 226 227 228 230 233 234 232 230 230 232 233 235 237 239 242 246 250 252 252 253 254 253 250 254 257 253 248 244 239 238 241
275 286 298 306 309 308 308 308 303 297 295 297 298 298 292 281 271 262 253 245 239 235 230 227 226 227 227 226 224 224 226 226 227 230 231 232 232 231 232 234 233 232 232 232 233 234 236 238 233 227 226 228 230 230 231 232 231 230 229 230 230 231 234 236 236 234 234 235 237 240 242 243 247 251 254 255 256 256 254 255 258 263 263 259 256 255 252 249
282 295 306 310 313 319 323 318 305 295 289 290 297 300 296 285 271 260 251 243 238 235 233 229 227 228 229 228 226 225 226 227 227 229 229 231 234 234 232 233 236 237 236 235 235 236 236 238 239 233 228 227 230 232 233 233 234 232 230 231 233 233 232 234 237 238 237 237 238 241 244 245 246 249 251 252 253 252 253 256 258 261 262 259 259 259 251 244
296 307 313 313 316 329 337 330 314 299 289 293 303 306 301 291 278 264 251 240 234 232 233 232 229 228 230 231 228 225 226 227 228 230 229 229 232 233 231 231 234 238 239 236 236 238 238 237 238 237 232 229 230 232 234 235 235 235 233 231 232 234 236 235 236 238 240 240 240 241 243 246 247 249 249 249 251 251 251 250 250 254 253 246 246 254 252 248
305 311 317 320 324 335 341 336 323 307 298 305 312 314 309 301 294 276 250 235 229 227 229 232 230 228 228 230 230 227 226 227 229 231 231 230 231 233 232 232 234 235 236 234 233 236 237 236 237 237 236 234 231 232 235 236 237 238 238 235 233 233 236 238 239 240 241 243 243 242 244 247 249 251 253 252 252 253 253 251 251 253 250 246 250 259 260 256
303 311 320 328 336 340 341 341 336 318 303 314 322 323 320 314 313 301 252 229 224 223 224 226 228 226 224 225 227 227 226 227 229 230 230 231 234 234 232 233 234 232 231 230 230 232 232 231 232 233 235 236 233 232 235 239 241 242 242 241 239 237 236 237 240 242 243 244 245 245 246 250 251 253 254 254 254 255 256 255 253 253 253 252 253 257 260 259
300 313 324 335 343 341 338 344 349 334 310 316 331 336 334 325 324 324 278 227 222 221 220 221 223 225 225 224 225 225 225 227 230 231 230 230 233 234 233 231 228 224 223 224 226 228 229 227 229 232 234 237 236 235 237 240 242 245 246 243 241 241 240 237 237 240 242 243 244 245 247 251 252 253 254 253 253 254 254 253 251 255 259 257 253 254 257 257
Height
5750 5751 5752 5752 5753 5754 5754 5755 5756 5757 5757 5758 5759 5760 5761 5761 5762 5763 5764 5764 5765 5766 5766 5766 5766 5766 5766 5766 5767 5767 5767 5768 5768 5768 5768 5768 5768 5768 5768 5768 5767 5767 5768 5767 5767 5768 5768 5768 5769 5769 5770 5770 5771 5771 5771 5771 5772 5773 5775 5778 5782 5784 5786 5788 5787 5787 5788 5788 5788 5789 5791 5792 5792 5793 5794 5795 5797 5798 5799 5799 5800 5801 5801 5802 5805 5806 5806 5806
5747 5748 5748 5749 5750 5751 5751 5752 5753 5753 5754 5755 5756 5757 5758 5758 5759 5760 5761 5762 5762 5762 5763 5763 5763 5763 5763 5763 5763 5764 5764 5764 5764 5764 5764 5765 5765 5765 5765 5764 5764 5764 5764 5764 5764 5764 5765 5765 5766 5766 5767 5767 5767 5768 5768 5768 5769 5770 5772 5775 5780 5783 5783 5784 5784 5785 5786 5786 5785 5786 5788 5789 5789 5790 5790 5792 5794 5794 5796 5797 5798 5799 5798 5800 5803 5804 5804 5804
5744 5745 5745 5746 5747 5748 5748 5749 5750 5750 5751 5752 5753 5754 5755 5755 5756 5757 5758 5759 5759 5759 5760 5760 5759 5760 5760 5760 5760 5761 5761 5761 5761 5761 5761 5762 5762 5762 5762 5761 5761 5761 5761 5761 5761 5761 5762 5762 5763 5763 5763 5764 5764 5765 5765 5766 5767 5768 5769 5774 5779 5780 5780 5780 5781 5783 5783 5783 5783 5784 5785 5785 5786 5788 5787 5789 5791 5791 5793 5794 5795 5796 5796 5798 5801 5801 5801 5802
5740 5741 5742 5743 5743 5744 5745 5746 5747 5747 5748 5749 5750 5750 5751 5752 5753 5754 5755 5756 5756 5756 5756 5756 5756 5757 5757 5757 5757 5757 5758 5758 5758 5758 5758 5758 5758 5758 5758 5758 5758 5758 5758 5757 5758 5758 5759 5759 5760 5760 5760 5761 5761 5762 5763 5764 5764 5765 5767 5772 5777 5777 5776 5776 5778 5779 5780 5780 5780 5781 5782 5782 5783 5784 5784 5786 5787 5789 5791 5791 5793 5793 5793 5797 5799 5799 5799 5800
5737 5738 5739 5739 5740 5741 5742 5742 5743 5744 5745 5745 5746 5747 5748 5749 5750 5751 5752 5752 5753 5753 5753 5753 5753 5753 5753 5754 5754 5754 5755 5754 5755 5755 5755 5755 5755 5755 5755 5755 5755 5755 5754 5754 5755 5755 5756 5756 5757 5757 5758 5758 5758 5759 5761 5761 5761 5761 5765 5770 5773 5773 5774 5774 5774 5776 5777 5777 5778 5778 5779 5779 5781 5780 5781 5783 5785 5788 5788 5789 5790 5790 5792 5795 5797 5797 5798 5799
5734 5735 5735 5736 5737 5737 5738 5739 5740 5740 5741 5742 5743 5744 5744 5745 5746 5747 5748 5749 5749 5750 5750 5750 5750 5750 5750 5751 5751 5751 5751 5751 5752 5752 5752 5752 5752 5751 5752 5752 5752 5751 5751 5751 5752 5752 5753 5753 5754 5755 5755 5755 5755 5757 5758 5757 5757 5758 5762 5767 5770 5771 5772 5772 5772 5772 5773 5775 5775 5776 5776 5777 5779 5778 5779 5781 5784 5785 5786 5787 5788 5788 5791 5793 5795 5796 5797 5798
5731 5732 5732 5733 5733 5734 5735 5735 5736 5737 5738 5738 5739 5740 5741 5742 5743 5744 5745 5745 5746 5746 5747 5747 5747 5747 5747 5748 5748 5748 5748 5748 5749 5749 5748 5748 5749 5749 5748 5748 5748 5748 5748 5749 5749 5750 5750 5751 5752 5752 5752 5753 5753 5754 5755 5754 5753 5756 5760 5764 5767 5768 5770 5770 5770 5770 5771 5772 5773 5773 5773 5775 5777 5776 5777 5780 5781 5783 5784 5785 5785 5786 5789 5792 5794 5795 5796 5797
5728 5729 5729 5730 5730 5731 5731 5732 5733 5733 5734 5735 5736 5737 5737 5738 5739 5740 5741 5742 5742 5743 5743 5744 5744 5744 5744 5745 5745 5745 5745 5746 5746 5746 5746 5746 5745 5746 5745 5745 5745 5745 5746 5746 5746 5747 5748 5749 5749 5749 5750 5750 5750 5752 5752 5750 5751 5754 5759 5761 5763 5765 5766 5767 5766 5767 5768 5769 5769 5770 5771 5773 5774 5773 5774 5777 5779 5780 5781 5782 5783 5785 5787 5790 5791 5793 5793 5794
5725 5726 5726 5726 5727 5727 5728 5728 5729 5730 5731 5731 5732 5733 5734 5735 5736 5737 5738 5738 5739 5739 5740 5741 5741 5741 5741 5742 5742 5742 5742 5743 5743 5743 5743 5743 5743 5743 5743 5742 5742 5743 5743 5743 5744 5745 5745 5746 5746 5746 5747 5747 5748 5749 5749 5748 5749 5753 5756 5758 5759 5761 5763 5763 5762 5764 5765 5766 5767 5767 5769 5771 5771 5771 5773 5776 5777 5777 5779 5780 5781 5783 5785 5787 5789 5790 5790 5791
5722 5722 5723 5723 5723 5724 5724 5725 5725 5726 5727 5728 5729 5729 5730 5731 5732 5733 5734 5735 5735 5736 5737 5737 5738 5738 5738 5738 5739 5738 5739 5739 5739 5740 5740 5740 5740 5739 5740 5740 5740 5740 5740 5741 5741 5742 5742 5742 5743 5744 5745 5746 5746 5747 5747 5747 5748 5751 5753 5754 5756 5758 5760 5761 5762 5763 5765 5765 5765 5766 5768 5769 5769 5770 5773 5774 5775 5775 5776 5778 5779 5782 5784 5785 5786 5787 5787 5789
5719 5719 5720 5720 5720 5720 5721 5721 5722 5722 5723 5724 5725 5726 5726 5727 5728 5729 5730 5731 5732 5733 5734 5734 5735 5735 5735 5735 5735 5735 5736 5736 5736 5737 5737 5737 5737 5736 5736 5736 5736 5737 5737 5738 5739 5739 5739 5739 5741 5742 5743 5744 5744 5745 5745 5746 5747 5748 5750 5752 5755 5757 5759 5760 5762 5763 5763 5764 5764 5765 5766 5767 5767 5769 5771 5772 5773 5774 5775 5777 5779 5780 5782 5783 5784 5784 5785 5786
5715 5716 5716 5717 5717 5717 5718 5718 5718 5719 5719 5720 5721 5722 5723 5723 5724 5725 5726 5727 5728 5729 5730 5731 5731 5731 5731 5731 5731 5732 5733 5733 5734 5734 5734 5734 5733 5733 5733 5733 5733 5734 5735 5736 5736 5736 5736 5737 5739 5740 5741 5741 5742 5743 5743 5744 5745 5746 5748 5750 5753 5755 5757 5759 5761 5762 5762 5763 5764 5763 5764 5765 5766 5769 5770 5771 5772 5775 5776 5777 5777 5778 5780 5781 5781 5782 5783 5783
5712 5712 5713 5713 5714 5714 5714 5715 5715 5715 5716 5716 5717 5718 5719 5720 5720 5721 5723 5724 5725 5726 5726 5727 5728 5728 5728 5727 5728 5730 5730 5730 5731 5730 5730 5730 5729 5729 5730 5730 5730 5731 5732 5733 5733 5733 5733 5735 5736 5737 5738 5739 5741 5741 5741 5743 5744 5745 5746 5748 5751 5753 5755 5758 5759 5760 5761 5762 5762 5761 5762 5765 5767 5769 5769 5770 5773 5775 5775 5775 5775 5776 5778 5779 5779 5780 5781 5780
5708 5709 5709 5710 5710 5711 5711 5711 5712 5712 5712 5713 5714 5714 5715 5716 5717 5717 5719 5720 5721 5722 5723 5724 5724 5725 5725 5723 5725 5727 5726 5727 5727 5726 5726 5726 5726 5726 5727 5727 5727 5728 5729 5729 5730 5730 5731 5732 5733 5735 5736 5738 5739 5739 5740 5741 5742 5743 5744 5746 5749 5751 5754 5756 5757 5757 5759 5760 5761 5759 5760 5764 5766 5767 5768 5770 5772 5773 5772 5772 5773 5775 5776 5776 5777 5778 5778 5779
5705 5705 5705 5706 5707 5707 5708 5708 5708 5708 5709 5709 5710 5711 5712 5712 5713 5714 5715 5716 5717 5718 5719 5720 5720 5721 5721 5720 5722 5724 5723 5724 5723 5723 5724 5724 5723 5723 5723 5724 5724 5725 5726 5727 5727 5727 5728 5729 5731 5733 5734 5735 5736 5737 5738 5739 5739 5741 5742 5744 5747 5749 5752 5754 5754 5755 5756 5758 5758 5757 5758 5762 5764 5764 5766 5769 5770 5770 5770 5770 5772 5773 5773 5774 5775 5776 5777 5777
5701 5702 5702 5703 5703 5704 5704 5704 5704 5705 5705 5706 5706 5707 5708 5708 5709 5710 5711 5712 5713 5714 5715 5716 5716 5717 5717 5717 5719 5720 5720 5720 5720 5721 5721 5721 5720 5720 5720 5721 5721 5722 5723 5724 5724 5725 5725 5727 5729 5731 5732 5733 5734 5735 5736 5736 5738 5739 5741 5743 5745 5746 5749 5751 5751 5752 5754 5755 5755 5755 5756 5759 5761 5762 5764 5767 5767 5767 5767 5768 5770 5771 5771 5772 5773 5774 5775 5775
5698 5698 5699 5699 5700 5700 5701 5701 5701 5701 5701 5702 5702 5703 5704 5704 5705 5706 5707 5708 5709 5710 5711 5712 5713 5714 5713 5714 5716 5716 5716 5717 5717 5718 5718 5717 5717 5717 5717 5718 5718 5719 5720 5720 5721 5722 5723 5725 5727 5728 5729 5731 5732 5733 5734 5735 5737 5738 5739 5741 5742 5743 5745 5748 5749 5749 5750 5750 5751 5752 5752 5754 5757 5760 5762 5764 5764 5764 5765 5766 5768 5768 5769 5770 5770 5772 5773 5773
5694 5695 5695 5696 5696 5697 5697 5698 5698 5698 5698 5698 5699 5699 5700 5701 5702 5702 5703 5704 5706 5707 5708 5708 5709 5710 5710 5711 5712 5712 5713 5714 5714 5714 5714 5714 5714 5714 5714 5714 5715 5716 5716 5717 5719 5721 5721 5723 5724 5725 5727 5729 5730 5731 5732 5734 5736 5736 5736 5737 5739 5739 5742 5744 5746 5746 5745 5745 5746 5746 5747 5749 5753 5756 5759 5759 5760 5762 5762 5764 5764 5765 5766 5767 5768 5770 5771 5772
5691 5691 5692 5692 5693 5694 5694 5694 5694 5694 5694 5695 5695 5695 5696 5697 5698 5699 5701 5702 5703 5703 5704 5705 5706 5706 5707 5708 5708 5708 5710 5710 5710 5710 5710 5711 5711 5711 5711 5711 5712 5713 5714 5715 5717 5718 5719 5720 5721 5723 5725 5727 5728 5729 5731 5732 5732 5732 5732 5734 5735 5737 5739 5742 5743 5743 5742 5742 5743 5744 5745 5747 5750 5754 5756 5756 5757 5758 5759 5760 5761 5762 5764 5766 5767 5768 5769 5770
5687 5687 5688 5689 5689 5690 5690 5691 5691 5691 5691 5691 5691 5692 5693 5694 5695 5696 5698 5698 5698 5699 5699 5700 5701 5702 5703 5703 5704 5705 5706 5706 5707 5707 5707 5708 5708 5708 5708 5709 5709 5710 5712 5714 5715 5716 5716 5717 5719 5722 5724 5725 5725 5726 5727 5729 5729 5730 5730 5732 5733 5734 5737 5739 5740 5740 5739 5740 5742 5743 5745 5746 5749 5753 5754 5753 5753 5754 5756 5757 5758 5760 5762 5764 5765 5766 5768 5769
5683 5684 5684 5685 5686 5686 5687 5687 5687 5687 5687 5687 5687 5688 5690 5691 5691 5692 5693 5694 5694 5694 5695 5695 5696 5698 5699 5699 5700 5702 5703 5703 5703 5704 5704 5705 5705 5706 5706 5706 5707 5709 5711 5712 5712 5713 5714 5716 5719 5721 5722 5722 5722 5723 5724 5726 5727 5727 5728 5729 5731 5733 5735 5737 5737 5737 5737 5738 5740 5742 5742 5744 5748 5751 5750 5749 5749 5751 5753 5755 5756 5758 5760 5761 5764 5765 5767 5769
5680 5680 5681 5681 5682 5683 5683 5684 5683 5683 5683 5683 5684 5685 5686 5687 5688 5688 5689 5689 5689 5689 5690 5691 5692 5694 5695 5695 5696 5698 5700 5700 5701 5701 5702 5702 5702 5703 5704 5704 5705 5707 5708 5708 5709 5711 5712 5715 5718 5718 5718 5719 5719 5721 5722 5724 5725 5725 5726 5728 5730 5732 5733 5734 5734 5734 5734 5735 5738 5739 5739 5742 5746 5746 5745 5746 5747 5749 5751 5753 5754 5756 5758 5760 5762 5764 5765 5767
5677 5677 5678 5678 5679 5679 5680 5680 5680 5680 5680 5680 5681 5682 5683 5684 5684 5684 5685 5685 5686 5685 5686 5687 5688 5689 5691 5692 5692 5695 5697 5698 5698 5698 5699 5699 5700 5700 5701 5702 5703 5704 5705 5706 5707 5709 5711 5714 5714 5714 5714 5716 5717 5718 5720 5721 5723 5724 5725 5726 5728 5730 5730 5731 5732 5731 5731 5733 5735 5736 5736 5740 5741 5741 5743 5744 5745 5747 5748 5750 5751 5753 5756 5758 5761 5762 5763 5765
5673 5674 5674 5675 5675 5676 5676 5676 5677 5677 5677 5677 5678 5678 5679 5680 5680 5680 5680 5682 5683 5683 5682 5683 5684 5686 5688 5688 5688 5690 5693 5695 5695 5696 5696 5697 5697 5696 5698 5700 5701 5701 5703 5704 5705 5707 5710 5711 5711 5711 5713 5714 5715 5716 5718 5720 5721 5722 5723 5725 5726 5727 5728 5729 5730 5729 5730 5731 5732 5733 5735 5738 5739 5740 5742 5742 5743 5744 5745 5747 5749 5751 5754 5757 5759 5760 5761 5763
5670 5671 5671 5672 5672 5673 5673 5673 5673 5674 5674 5675 5675 5674 5675 5676 5676 5676 5677 5678 5680 5680 5679 5679 5681 5684 5685 5684 5685 5687 5690 5693 5693 5694 5694 5695 5694 5694 5695 5696 5698 5700 5701 5702 5703 5705 5707 5708 5708 5710 5711 5712 5713 5714 5716 5718 5719 5720 5721 5723 5724 5724 5725 5727 5728 5727 5728 5729 5730 5731 5733 5736 5737 5739 5740 5740 5741 5742 5744 5746 5748 5750 5753 5755 5757 5758 5759 5761
5667 5668 5668 5668 5669 5669 5669 5670 5670 5671 5671 5671 5671 5671 5672 5672 5672 5674 5674 5675 5676 5676 5676 5676 5677 5680 5681 5682 5683 5684 5686 5690 5691 5690 5691 5692 5692 5691 5692 5694 5696 5698 5699 5699 5701 5703 5705 5705 5707 5708 5709 5710 5711 5712 5714 5715 5716 5718 5719 5720 5721 5722 5723 5725 5725 5725 5726 5727 5728 5730 5731 5733 5735 5737 5738 5739 5740 5741 5742 5745 5747 5749 5752 5754 5756 5757 5757 5759
5664 5664 5665 5665 5665 5665 5666 5666 5667 5668 5668 5668 5668 5668 5668 5669 5670 5671 5671 5672 5673 5673 5673 5673 5674 5676 5677 5678 5680 5681 5683 5686 5686 5687 5689 5690 5689 5689 5690 5692 5695 5696 5696 5697 5700 5702 5702 5703 5705 5705 5706 5707 5709 5711 5712 5713 5715 5716 5717 5717 5718 5719 5721 5722 5723 5723 5725 5726 5727 5728 5730 5732 5734 5735 5736 5737 5739 5740 5741 5743 5746 5748 5750 5752 5754 5755 5756 5758
5661 5661 5661 5662 5662 5662 5662 5663 5664 5664 5665 5665 5665 5665 5665 5666 5668 5668 5668 5669 5670 5670 5670 5670 5671 5672 5674 5675 5677 5679 5680 5681 5683 5684 5686 5687 5686 5687 5689 5691 5693 5693 5693 5695 5698 5699 5699 5701 5702 5702 5703 5705 5707 5708 5709 5710 5712 5713 5713 5714 5715 5716 5718 5720 5721 5722 5723 5724 5725 5727 5728 5730 5732 5733 5734 5735 5737 5739 5741 5743 5745 5747 5748 5751 5752 5753 5755 5756
5658 5658 5658 5659 5659 5658 5659 5660 5660 5661 5661 5662 5662 5662 5662 5663 5664 5664 5666 5668 5668 5668 5667 5667 5668 5668 5670 5672 5674 5676 5676 5678 5680 5681 5682 5684 5684 5685 5687 5689 5690 5689 5690 5693 5696 5696 5697 5699 5699 5699 5702 5704 5705 5705 5706 5708 5710 5711 5711 5711 5712 5713 5715 5717 5718 5719 5720 5722 5724 5725 5726 5728 5730 5731 5732 5734 5735 5737 5739 5741 5743 5745 5746 5748 5750 5751 5753 5754
5655 5655 5655 5655 5656 5655 5656 5657 5657 5657 5658 5659 5659 5659 5659 5660 5661 5661 5663 5666 5665 5665 5665 5665 5666 5666 5667 5669 5671 5673 5674 5675 5677 5678 5680 5681 5681 5683 5684 5685 5685 5685 5687 5691 5693 5694 5695 5696 5696 5698 5701 5702 5702 5703 5704 5706 5707 5708 5708 5709 5710 5711 5712 5714 5716 5717 5718 5720 5722 5724 5725 5726 5727 5729 5730 5732 5734 5736 5737 5739 5741 5742 5744 5746 5748 5749 5750 5751
5651 5651 5651 5652 5653 5653 5653 5653 5654 5654 5655 5655 5655 5656 5656 5657 5658 5659 5661 5663 5662 5662 5662 5663 5664 5665 5665 5666 5667 5669 5671 5672 5673 5676 5677 5678 5679 5681 5682 5683 5683 5684 5686 5690 5691 5691 5692 5693 5695 5697 5699 5699 5700 5701 5702 5704 5705 5705 5706 5707 5708 5709 5710 5712 5713 5715 5716 5718 5721 5723 5723 5724 5725 5727 5728 5730 5732 5734 5736 5737 5739 5740 5742 5744 5745 5746 5747 5749
5648 5648 5649 5649 5650 5650 5650 5650 5650 5651 5652 5652 5652 5652 5653 5654 5655 5657 5658 5659 5658 5659 5660 5660 5662 5663 5664 5664 5664 5666 5667 5669 5670 5672 5675 5676 5677 5679 5680 5681 5682 5683 5685 5689 5690 5690 5690 5692 5694 5695 5696 5697 5698 5699 5700 5702 5703 5703 5704 5705 5705 5706 5708 5710 5712 5713 5714 5717 5720 5721 5722 5723 5724 5725 5727 5729 5730 5732 5733 5735 5736 5738 5740 5741 5743 5744 5745 5746
5645 5646 5646 5646 5647 5647 5648 5647 5647 5648 5649 5649 5649 5649 5650 5651 5653 5654 5654 5655 5655 5656 5657 5657 5659 5661 5662 5663 5664 5664 5664 5666 5667 5669 5671 5673 5675 5677 5678 5678 5679 5680 5683 5686 5687 5688 5689 5690 5692 5693 5695 5696 5697 5698 5699 5700 5701 5702 5702 5703 5703 5704 5706 5708 5710 5711 5713 5716 5718 5719 5720 5722 5723 5724 5726 5728 5729 5730 5732 5733 5734 5736 5737 5739 5740 5741 5742 5743
5643 5643 5643 5643 5644 5644 5645 5645 5645 5646 5646 5646 5646 5646 5647 5649 5650 5650 5650 5651 5652 5652 5653 5655 5657 5658 5659 5661 5663 5663 5662 5663 5663 5665 5668 5670 5672 5674 5675 5676 5677 5679 5681 5682 5683 5685 5687 5688 5690 5692 5693 5694 5696 5697 5697 5698 5699 5700 5701 5701 5702 5703 5705 5706 5708 5710 5712 5714 5716 5717 5718 5719 5721 5723 5725 5726 5728 5729 5730 5731 5732 5733 5735 5736 5737 5738 5739 5740
5640 5641 5641 5641 5641 5642 5642 5642 5642 5643 5643 5643 5643 5644 5645 5646 5647 5646 5647 5648 5648 5649 5651 5652 5654 5655 5656 5657 5659 5659 5659 5660 5661 5663 5665 5667 5669 5671 5673 5674 5675 5676 5678 5679 5680 5683 5684 5686 5688 5690 5691 5693 5694 5695 5696 5696 5697 5698 5699 5700 5701 5703 5704 5705 5707 5709 5710 5712 5714 5715 5716 5717 5719 5722 5724 5725 5726 5727 5728 5729 5730 5732 5733 5734 5735 5734 5734 5736
5638 5638 5638 5639 5639 5640 5640 5640 5640 5640 5641 5641 5641 5642 5642 5643 5643 5643 5644 5644 5645 5646 5648 5650 5651 5651 5652 5654 5655 5655 5656 5658 5659 5661 5662 5664 5666 5668 5670 5671 5671 5673 5674 5676 5678 5680 5682 5684 5686 5687 5689 5691 5692 5693 5694 5694 5696 5697 5697 5699 5701 5702 5702 5703 5705 5707 5708 5710 5712 5713 5714 5715 5717 5719 5721 5723 5724 5725 5726 5728 5729 5730 5731 5731 5731 5731 5731 5734
5636 5636 5636 5637 5637 5637 5637 5638 5637 5638 5638 5638 5639 5639 5639 5639 5640 5640 5640 5641 5641 5643 5646 5647 5647 5648 5649 5650 5652 5653 5655 5656 5657 5658 5659 5662 5664 5665 5667 5667 5668 5670 5672 5674 5675 5676 5679 5682 5683 5684 5686 5688 5689 5690 5691 5692 5693 5694 5696 5698 5699 5700 5701 5702 5703 5704 5706 5708 5709 5710 5712 5713 5715 5717 5718 5720 5722 5723 5724 5725 5726 5726 5726 5725 5726 5728 5730 5732
5634 5634 5635 5635 5635 5635 5635 5635 5635 5635 5635 5636 5636 5636 5637 5637 5637 5637 5638 5638 5639 5641 5643 5644 5644 5645 5646 5647 5649 5651 5653 5654 5654 5655 5656 5658 5660 5663 5664 5665 5666 5667 5669 5671 5673 5674 5677 5680 5681 5682 5684 5685 5686 5688 5689 5690 5691 5692 5694 5695 5697 5698 5700 5700 5701 5702 5704 5705 5706 5708 5710 5711 5712 5714 5716 5717 5719 5720 5722 5723 5724 5724 5724 5723 5724 5726 5728 5730
5632 5632 5633 5633 5632 5632 5632 5632 5632 5632 5632 5633 5633 5633 5634 5634 5634 5635 5636 5637 5637 5639 5640 5641 5641 5642 5643 5644 5645 5648 5650 5651 5652 5653 5654 5655 5657 5660 5662 5663 5664 5665 5666 5669 5671 5672 5674 5677 5679 5680 5681 5682 5684 5685 5687 5688 5689 5690 5691 5692 5694 5696 5698 5698 5699 5701 5702 5703 5704 5706 5708 5709 5711 5712 5713 5714 5716 5718 5720 5721 5723 5724 5724 5724 5723 5724 5726 5728
5630 5630 5631 5631 5630 5630 5630 5630 5630 5630 5630 5630 5629 5630 5630 5631 5631 5632 5633 5634 5635 5636 5638 5638 5639 5639 5640 5641 5642 5645 5647 5648 5649 5651 5652 5652 5654 5657 5659 5661 5662 5662 5664 5666 5668 5670 5672 5675 5677 5678 5678 5680 5682 5683 5685 5686 5687 5689 5689 5690 5692 5694 5695 5696 5697 5698 5700 5701 5702 5704 5705 5707 5709 5711 5711 5712 5714 5716 5718 5719 5720 5722 5723 5723 5722 5722 5724 5726
5628 5628 5628 5628 5628 5628 5628 5628 5628 5628 5627 5627 5627 5627 5627 5627 5627 5628 5629 5631 5631 5632 5634 5635 5636 5636 5637 5638 5640 5641 5644 5645 5646 5648 5649 5650 5652 5654 5657 5658 5660 5661 5662 5664 5665 5667 5669 5672 5674 5675 5675 5677 5679 5680 5682 5684 5685 5686 5687 5688 5690 5692 5693 5694 5695 5696 5698 5699 5700 5702 5703 5705 5708 5709 5710 5711 5712 5714 5716 5717 5718 5719 5720 5720 5719 5720 5722 5723
5626 5626 5627 5627 5627 5626 5626 5626 5625 5625 5624 5624 5624 5624 5624 5624 5624 5624 5625 5627 5627 5628 5630 5632 5632 5633 5635 5636 5637 5639 5640 5641 5643 5645 5647 5648 5649 5651 5653 5655 5657 5658 5660 5661 5663 5664 5666 5668 5672 5673 5672 5674 5676 5678 5680 5681 5682 5684 5685 5686 5688 5690 5691 5692 5694 5695 5696 5697 5698 5700 5701 5703 5705 5707 5708 5709 5710 5712 5714 5715 5716 5717 5718 5717 5717 5719 5720 5721
5625 5625 5625 5625 5625 5625 5624 5624 5623 5622 5621 5621 5620 5620 5620 5620 5620 5620 5621 5622 5623 5624 5625 5627 5628 5630 5632 5634 5635 5637 5637 5638 5640 5642 5644 5645 5646 5648 5650 5652 5653 5654 5656 5658 5659 5661 5663 5665 5669 5670 5670 5671 5673 5675 5677 5678 5680 5681 5682 5684 5685 5687 5689 5690 5692 5693 5694 5695 5696 5698 5699 5700 5702 5704 5706 5707 5708 5710 5711 5713 5714 5715 5715 5715 5716 5716 5717 5717
5624 5624 5624 5623 5623 5623 5622 5622 5621 5620 5619 5618 5617 5617 5616 5616 5616 5616 5616 5617 5619 5619 5620 5622 5624 5626 5628 5630 5633 5635 5634 5635 5638 5639 5641 5642 5644 5646 5648 5649 5650 5652 5653 5655 5656 5659 5661 5662 5665 5667 5667 5668 5670 5671 5673 5675 5677 5679 5680 5681 5683 5685 5686 5688 5689 5691 5692 5693 5694 5695 5697 5698 5700 5701 5703 5704 5706 5707 5709 5710 5711 5711 5711 5712 5713 5714 5714 5715
5622 5622 5622 5621 5621 5620 5620 5619 5618 5617 5617 5616 5615 5614 5613 5612 5612 5612 5612 5612 5614 5615 5616 5618 5620 5622 5624 5627 5631 5632 5632 5633 5635 5637 5638 5640 5642 5644 5645 5647 5648 5650 5651 5653 5654 5656 5657 5659 5662 5664 5664 5665 5667 5669 5670 5672 5675 5676 5678 5679 5681 5682 5684 5685 5687 5689 5690 5691 5692 5693 5695 5696 5697 5699 5700 5702 5703 5705 5706 5707 5708 5708 5708 5709 5710 5711 5713 5715
5621 5621 5620 5619 5619 5618 5617 5616 5616 5615 5614 5613 5612 5611 5610 5609 5609 5608 5607 5608 5609 5611 5612 5614 5616 5618 5621 5624 5627 5629 5630 5631 5633 5634 5636 5637 5639 5641 5643 5645 5646 5647 5648 5650 5652 5653 5655 5656 5658 5660 5662 5663 5664 5666 5668 5670 5672 5674 5675 5677 5678 5680 5682 5683 5684 5686 5687 5689 5690 5691 5693 5695 5696 5697 5698 5699 5701 5702 5704 5705 5706 5706 5706 5706 5707 5709 5711 5713
5619 5619 5619 5618 5617 5616 5615 5614 5613 5612 5611 5610 5610 5609 5607 5606 5605 5604 5604 5603 5604 5606 5608 5611 5613 5615 5618 5620 5624 5626 5627 5628 5630 5631 5633 5635 5637 5639 5640 5642 5643 5644 5645 5647 5649 5650 5652 5653 5655 5658 5659 5660 5661 5663 5665 5667 5669 5671 5672 5674 5676 5677 5679 5680 5682 5683 5684 5686 5688 5689 5691 5692 5694 5695 5695 5697 5699 5700 5701 5703 5704 5705 5705 5705 5706 5708 5709 5710
5618 5618 5617 5616 5615 5615 5614 5613 5611 5610 5609 5609 5607 5606 5604 5602 5600 5600 5600 5600 5600 5602 5605 5607 5610 5612 5615 5617 5621 5623 5624 5626 5627 5629 5631 5633 5635 5636 5638 5639 5640 5641 5643 5644 5646 5648 5649 5650 5652 5654 5656 5657 5658 5659 5661 5663 5665 5667 5669 5672 5673 5674 5675 5677 5679 5680 5681 5683 5685 5687 5688 5690 5691 5692 5693 5695 5696 5697 5699 5701 5702 5703 5703 5704 5704 5705 5706 5707
5617 5616 5616 5615 5614 5613 5612 5611 5609 5608 5607 5606 5605 5603 5601 5599 5597 5596 5596 5597 5598 5599 5601 5604 5607 5609 5612 5614 5617 5620 5621 5623 5625 5626 5628 5631 5633 5634 5635 5636 5637 5639 5640 5642 5644 5645 5646 5648 5649 5651 5653 5654 5655 5656 5657 5659 5661 5663 5665 5668 5670 5672 5673 5674 5676 5677 5678 5680 5682 5684 5685 5687 5688 5690 5691 5692 5693 5695 5696 5698 5700 5701 5702 5702 5702 5703 5705 5706
5615 5615 5614 5614 5613 5612 5611 5609 5608 5606 5605 5604 5603 5600 5598 5596 5594 5593 5593 5594 5595 5597 5599 5601 5603 5606 5608 5611 5613 5616 5618 5620 5622 5623 5626 5628 5630 5631 5632 5634 5636 5637 5638 5640 5642 5643 5644 5645 5647 5648 5649 5651 5652 5652 5654 5656 5658 5660 5661 5664 5667 5669 5670 5672 5673 5674 5676 5677 5679 5681 5682 5684 5686 5687 5689 5690 5691 5692 5693 5695 5697 5698 5699 5700 5700 5701 5702 5703
5614 5614 5613 5612 5611 5610 5609 5608 5606 5605 5604 5603 5601 5599 5597 5595 5594 5592 5591 5592 5593 5595 5596 5598 5600 5603 5605 5607 5610 5612 5614 5617 5618 5620 5623 5624 5626 5627 5630 5632 5633 5635 5636 5638 5640 5641 5641 5643 5644 5644 5645 5647 5648 5649 5651 5653 5655 5656 5658 5659 5662 5664 5667 5669 5670 5671 5673 5675 5676 5678 5680 5683 5684 5685 5686 5687 5688 5690 5691 5692 5693 5694 5695 5696 5697 5697 5698 5699
5614 5613 5612 5611 5610 5609 5609 5607 5606 5604 5603 5602 5600 5598 5596 5595 5594 5593 5592 5592 5592 5593 5595 5597 5599 5601 5603 5605 5607 5609 5611 5613 5615 5617 5619 5620 5621 5624 5627 5629 5631 5632 5633 5635 5637 5638 5638 5640 5641 5641 5642 5643 5645 5646 5648 5650 5651 5652 5653 5655 5657 5659 5662 5665 5667 5668 5670 5672 5673 5675 5677 5680 5681 5682 5683 5684 5685 5686 5688 5689 5690 5691 5691 5692 5693 5694 5695 5696